SCP
-0 -0 -0 -0 -0 -0 -0 -0 -0 0 0 0 0 0 -0 -0 -0 0 0 0 0 -0 -0 -0 -0 -0 -0 -0 -0 -0 -0 0 0 -0 -0 -0 -0 -0 -0 -0 0 0 0
-0 -0 -0 -0 -0 0 -0 0 0 0 0 0 0 0 -0 -0 -0 -0 -0 -0 -0 -0 -0 -0 -0 -0 -0 -0 -0 -0 -0 -0 -0 -0 -0 -0 0 -0 -0 -0 0 0 0
-0 -0 -0 -0 -0 -0 -0 0 0 0 0 0 0 -0 -0 -0 -0 -0 -0 -0 -0 -0 -0 -0 -0 -0 -0 0 -0 -0 -0 -0 -0 0 -0 -0 0 0 0 0 0 0 0
-0 -0 -0 -0 -0 -0 -0 0 0 0 0 0 -0 -0 -0 -0 -0 -0 -0 -0 -0 -0 -0 0 0 0 0 0 0 -0 -0 0 0 0 0 -0 0 0 0 0 0 0 0
-0 -0 -0 -0 -0 0 0 0 0 0 0 -0 -0 -0 -0 -0 -0 -0 -0 -0 -0 -0 -0 -0 -0 -0 0 0 -0 0 0 0 0 -0 0 0 0 0 -0 0 0 0 0
-0 -0 -0 -0 -0 -0 -0 0 0 0 -0 -0 -0 -0 -0 -0 -0 -0 -0 -0 -0 -0 -0 -0 -0 -0 -0 -0 -0 -0 -0 0 0 -0 -0 0 0 0 0 0 0 0 0
-0 -1 -0 -0 -0 -0 -0 0 0 -0 -0 -0 -0 -0 -0 -0 -0 -0 -0 -0 -0 -0 -0 -0 -0 0 0 0 0 0 0 -0 0 0 0 0 0 0 0 0 0 0 0
-0 -0 -0 -0 -0 -0 -0 0 0 -0 -0 -0 -0 0 0 0 0 0 0 0 -0 -0 -0 -0 0 0 0 0 0 0 0 0 0 0 0 0 0 0 0 0 0 0 0
-0 -0 -0 -0 -0 -0 0 0 0 -0 -0 -0 0 0 0 0 0 0 0 0 0 0 0 0 0 0 0 0 0 0 0 0 0 -0 -0 1 0 0 0 0 0 0 0
-0 -0 -0 -0 -0 -0 -0 0 0 0 0 0 0 0 0 0 0 0 0 0 0 0 0 0 0 0 0 0 0 0 0 0 -0 -0 0 0 0 0 0 0 0 0 0
0 -0 -0 0 -0 0 -0 0 0 0 0 0 0 0 0 0 0 0 0 0 0 0 0 0 0 0 0 0 0 0 0 -0 0 0 0 0 0 0 0 0 0 0 1
0 0 0 0 0 0 0 0 0 0 0 0 0 0 0 0 0 0 0 0 0 0 0 0 0 0 0 0 0 0 0 0 0 0 0 0 0 0 0 0 0 0 0
0 0 0 0 0 0 0 0 0 0 0 0 0 0 0 0 0 0 0 0 0 0 0 0 0 0 0 0 0 0 0 0 0 0 0 0 0 0 0 0 0 0 1
0 0 0 0 0 0 0 0 0 -0 0 0 1 0 0 0 0 0 0 0 0 0 0 0 0 0 0 0 0 0 0 0 0 0 0 0 0 0 0 0 0 0 0
0 0 0 1 1 1 1 0 0 -0 0 0 0 0 0 0 1 0 0 0 0 0 0 0 0 0 0 0 0 0 0 0 0 0 0 0 0 0 0 0 0 0 0
0 0 0 1 1 1 1 1 0 1 0 0 0 0 0 0 0 0 0 0 0 0 0 0 0 0 0 0 0 0 0 0 0 0 0 0 1 0 0 0 0 0 0
1 0 1 1 2 2 1 1 0 0 0 0 0 0 0 0 0 0 0 0 0 0 0 0 0 0 0 0 0 0 0 0 0 0 0 0 0 0 0 0 0 0 0
1 1 1 0 1 1 1 0 0 0 0 0 0 0 0 0 0 0 0 0 0 0 0 0 0 0 0 0 0 0 0 0 0 0 0 0 0 0 0 0 0 0 0
1 1 1 1 0 1 1 0 0 1 0 0 0 0 0 0 0 0 0 0 0 0 0 0 0 0 0 0 0 0 0 0 0 0 0 0 0 0 0 0 0 0 0
1 2 1 1 1 1 0 1 0 0 0 0 1 0 0 0 0 0 0 0 0 0 0 0 0 0 0 0 0 0 0 0 0 0 0 0 0 0 0 0 0 0 0
1 1 1 1 1 0 0 0 1 1 0 1 1 1 0 0 0 0 0 0 0 0 0 0 0 0 0 0 0 0 0 0 0 0 0 0 0 0 0 0 0 0 0
1 1 1 1 1 1 0 1 1 1 1 0 0 0 0 0 0 0 0 0 0 0 0 0 0 0 0 0 0 0 0 0 0 0 0 0 0 0 0 0 0 0 0
1 1 1 1 1 1 0 1 1 1 1 0 1 0 0 0 0 0 0 0 0 0 0 0 0 0 0 0 0 0 0 0 0 0 0 0 0 0 0 0 0 0 0
1 1 1 1 1 1 1 1 2 2 1 1 0 0 0 0 0 0 0 0 0 0 0 0 0 0 0 0 0 0 0 0 0 0 0 0 0 0 0 0 0 0 0
1 0 1 1 2 2 2 1 2 1 0 0 0 1 1 1 0 0 0 0 0 0 0 0 0 0 0 0 0 0 0 0 0 0 0 0 0 0 0 0 0 0 0
0 0 1 2 3 2 1 2 2 1 1 1 1 0 0 0 0 0 0 0 0 0 0 0 0 0 0 0 0 0 0 0 0 0 0 0 0 0 0 0 0 1 0
Wind_Speed_500mb
25 25 24 22 22 21 20 19 19 19 18 18 17 18 18 18 18 19 19 19 20 20 20 20 19 19 17 14 12 13 13 15 17 19 19 23 25 24 23 24 29 10 14
28 26 26 23 21 19 18 17 16 15 15 15 15 15 16 17 18 19 20 20 21 22 22 21 21 20 20 19 18 17 17 17 15 14 19 16 16 20 18 18 13 13 15
26 29 27 24 21 19 16 14 13 12 11 12 14 15 15 16 18 20 22 25 25 26 26 26 25 24 24 22 21 19 19 18 17 12 13 15 12 17 14 11 12 14 15
26 26 26 25 21 19 16 14 12 10 9 10 12 14 15 17 18 20 20 22 24 26 26 27 27 27 27 26 24 23 22 21 19 14 8 9 8 18 17 10 8 10 10
26 24 25 24 22 19 17 13 10 7 7 8 10 13 14 15 17 20 20 22 25 27 28 27 27 27 27 27 26 24 24 23 21 14 6 10 7 24 23 15 11 6 9
25 24 25 25 21 18 15 11 7 5 5 6 8 9 10 12 15 17 19 20 24 27 29 30 29 26 25 25 24 24 24 23 21 20 26 14 16 29 27 21 15 15 10
22 22 23 22 20 17 13 9 5 4 3 4 5 7 10 12 14 16 17 20 23 28 31 32 31 30 28 27 27 27 27 27 21 17 23 17 24 29 34 26 21 20 18
21 16 20 20 18 14 11 7 5 3 2 3 5 7 7 10 13 15 17 20 27 32 34 34 35 36 36 35 33 32 31 30 25 26 34 28 24 32 36 32 25 23 24
18 20 13 14 14 12 8 7 5 3 2 5 4 4 3 9 15 19 23 23 32 35 39 38 38 42 42 40 45 38 41 39 30 24 22 25 39 33 32 34 32 29 28
17 16 14 15 9 9 6 5 6 4 4 1 3 3 5 13 23 26 23 31 36 39 40 41 41 38 40 49 26 28 39 44 17 22 23 28 28 39 32 27 28 32 35
16 15 14 10 13 8 15 16 10 7 5 6 10 9 9 11 18 17 28 39 40 40 49 42 36 43 42 41 37 28 32 20 22 24 26 34 35 37 35 29 27 29 31
15 14 12 12 11 10 10 12 6 14 11 5 7 12 10 18 21 28 26 40 34 46 48 40 45 49 44 39 38 32 34 36 32 30 30 36 41 41 41 31 32 36 36
14 13 13 13 14 13 10 14 20 15 22 14 13 15 14 18 16 23 27 26 34 37 41 41 40 39 41 42 42 43 43 40 37 32 31 39 35 40 42 37 31 31 31
10 10 7 11 13 15 14 21 15 22 20 14 10 19 16 20 20 20 24 30 33 37 40 40 40 43 43 43 44 45 43 42 38 36 34 40 37 38 39 35 34 37 32
8 10 11 14 16 16 18 18 22 24 21 14 17 15 14 14 20 20 23 33 35 36 38 42 42 42 42 42 43 44 46 45 44 42 44 48 47 50 42 37 35 36 39
8 8 13 16 17 14 21 24 20 18 17 17 14 17 16 29 32 23 30 31 34 35 39 40 41 42 42 43 44 43 43 43 44 41 43 43 43 44 47 47 44 45 45
9 8 13 14 17 21 15 10 7 11 12 13 13 29 35 26 28 39 28 34 36 34 41 41 41 43 43 43 45 44 43 43 42 41 40 40 40 44 49 50 48 45 47
9 10 9 8 11 11 9 8 8 14 12 16 26 32 29 17 24 31 31 36 39 39 41 41 42 43 43 45 44 42 41 43 41 40 40 43 42 44 41 38 41 44 48
11 10 6 7 9 10 15 9 12 22 25 25 25 25 21 23 26 31 34 38 40 42 41 42 41 44 46 45 43 41 41 41 40 41 41 40 40 45 46 50 57 60 63
10 10 8 5 11 15 11 15 13 15 16 15 25 25 24 24 29 32 36 41 39 45 46 43 50 44 41 41 45 42 41 36 39 40 40 38 36 38 41 47 47 47 50
9 7 8 9 12 10 9 12 20 21 25 25 27 24 24 26 30 37 38 40 44 46 48 53 50 42 42 39 43 40 40 38 40 39 34 33 28 27 33 33 39 34 34
8 8 10 9 12 12 11 13 18 20 23 26 27 24 39 38 34 39 39 43 44 49 49 47 41 45 48 40 41 45 41 32 26 17 27 24 29 26 31 42 33 34 28
11 9 9 10 11 11 14 13 23 24 27 24 20 29 29 37 36 37 39 39 41 45 43 43 43 39 41 42 36 34 21 18 29 18 16 27 22 27 32 36 32 27 18
13 11 9 9 9 9 16 12 19 23 19 21 30 33 38 35 39 34 38 39 40 36 41 33 30 34 30 34 34 33 33 36 26 30 22 16 23 25 23 27 24 19 18
4 8 10 9 7 13 18 16 13 17 22 25 28 35 41 34 34 41 38 37 39 42 37 41 42 39 36 35 34 38 38 34 33 29 32 26 26 24 26 24 22 18 13
3 8 9 9 8 12 14 16 19 25 30 29 31 39 34 36 39 38 35 32 45 40 42 47 41 42 40 40 42 39 36 38 28 29 29 32 35 27 32 30 21 16 16
Wind_Direction_500mb
145 152 142 135 127 122 120 118 112 106 98 87 77 67 60 55 49 44 40 37 31 28 25 22 18 14 12 9 359 351 351 355 6 19 28 34 26 29 42 61 67 38 58
150 153 150 142 132 132 129 121 109 100 93 87 77 65 55 47 41 36 33 30 26 21 17 13 8 4 358 353 347 340 334 333 337 356 22 20 5 10 25 44 64 50 59
153 156 154 148 144 139 132 124 113 107 94 75 62 55 53 52 50 43 40 36 33 28 21 16 10 3 355 345 337 333 329 327 328 337 40 11 316 346 351 21 39 43 45
153 154 161 155 151 151 141 137 132 119 92 76 66 60 57 53 50 41 41 37 32 23 17 11 7 4 0 352 339 328 324 322 321 325 1 321 293 301 315 333 7 27 32
154 150 180 162 163 155 155 151 140 112 89 75 69 65 66 55 52 45 41 37 29 23 19 12 4 357 352 350 347 340 329 322 318 318 321 293 233 297 291 299 305 346 5
152 165 171 169 169 163 161 159 150 122 95 85 76 65 51 56 52 49 47 42 33 22 14 6 360 357 351 347 344 345 343 333 320 314 291 262 298 259 281 285 284 286 298
152 166 177 172 173 171 173 173 176 150 118 93 65 56 64 61 58 49 44 33 24 15 10 3 356 347 341 334 330 326 322 321 333 306 290 302 262 269 280 278 273 269 269
154 159 187 179 179 181 187 197 212 179 80 29 60 84 79 57 41 26 13 9 4 0 357 353 351 343 335 328 325 322 317 313 310 299 291 282 273 265 274 282 273 266 260
164 162 164 178 187 193 202 219 229 199 31 48 96 107 84 22 3 357 353 351 345 343 344 341 336 336 333 325 320 322 325 314 314 286 279 260 269 276 277 277 272 270 266
165 172 176 179 200 202 235 254 241 229 186 332 29 21 346 356 356 349 343 328 334 334 333 329 327 321 318 319 316 320 331 323 314 290 278 268 268 271 278 286 277 273 272
166 176 178 182 199 198 190 285 256 266 237 303 322 333 339 356 317 323 310 329 339 339 334 331 325 321 320 319 307 298 331 327 301 287 276 271 277 277 279 286 286 285 278
169 179 185 190 202 205 221 251 246 262 272 289 278 285 327 303 315 326 329 331 341 335 335 332 329 319 311 305 312 308 300 298 295 289 275 272 278 281 282 288 288 284 282
153 176 192 203 203 206 243 249 244 223 234 253 241 269 288 306 316 324 327 324 329 328 322 317 317 309 300 295 291 287 287 289 286 283 278 276 285 288 289 276 287 286 283
164 181 223 224 227 223 235 264 270 265 246 225 223 286 314 318 309 314 321 324 324 324 321 317 312 302 299 294 290 286 283 281 280 275 274 286 292 290 292 277 280 279 287
209 219 247 231 243 236 254 260 272 281 290 265 285 282 300 309 288 314 314 321 319 322 324 318 311 304 301 296 290 285 279 276 275 272 269 276 285 287 288 286 278 278 281
223 248 250 250 248 254 263 255 262 256 260 270 272 262 279 308 304 318 320 313 320 318 317 315 309 304 302 297 290 285 280 274 271 268 266 269 281 282 291 288 283 274 274
226 221 237 242 238 267 254 268 257 253 261 262 268 276 306 307 294 305 321 322 317 309 321 313 307 304 301 296 291 285 277 273 271 266 266 267 270 283 282 281 279 280 278
207 226 237 230 245 267 228 247 252 267 257 253 261 304 304 294 302 312 316 320 309 317 317 310 310 307 302 297 292 287 281 274 270 268 266 268 270 273 278 287 287 286 277
215 221 213 218 224 242 265 234 256 257 272 282 287 307 281 286 299 303 315 317 308 316 315 311 306 305 307 302 295 290 283 279 274 268 270 272 269 275 276 273 272 271 275
206 211 220 241 233 259 242 274 263 283 268 280 299 296 278 295 303 305 310 317 311 312 309 304 305 304 301 302 299 287 287 282 277 268 266 267 267 271 274 278 277 276 270
203 223 218 252 246 263 263 278 283 286 306 297 308 295 285 298 300 311 313 306 309 307 301 306 305 297 301 302 303 293 288 281 275 262 260 261 266 271 273 280 285 275 272
225 232 243 249 252 263 255 278 275 283 294 297 292 285 322 311 308 309 301 306 306 305 304 304 300 298 293 302 301 301 294 289 271 265 242 251 271 275 275 282 265 266 267
246 253 258 258 243 259 249 274 298 315 314 305 314 307 301 293 305 301 306 305 303 303 303 298 292 296 295 293 288 287 295 289 315 292 287 292 278 290 277 281 268 259 268
258 252 250 244 240 301 292 276 279 296 310 300 310 306 301 306 300 305 306 304 308 303 304 303 307 299 298 301 293 279 271 279 290 294 275 308 281 280 278 277 276 248 251
245 255 246 221 242 271 284 307 284 293 296 307 306 301 307 320 304 306 304 305 301 308 301 302 298 292 292 291 294 295 283 279 273 273 280 286 289 288 298 299 281 262 259
281 297 246 239 249 283 304 296 304 305 310 311 312 316 313 310 312 305 305 301 307 303 302 307 295 292 293 295 295 286 282 280 278 274 284 287 286 294 301 303 300 274 258
Wind_Speed_850mb
25 25 24 22 22 21 20 19 19 19 18 18 17 18 18 18 18 19 19 19 20 20 20 20 19 19 17 14 12 13 13 15 17 19 19 23 25 24 23 24 29 10 14
28 26 26 23 21 19 18 17 16 15 15 15 15 15 16 17 18 19 20 20 21 22 22 21 21 20 20 19 18 17 17 17 15 14 19 16 16 20 18 18 13 13 15
26 29 27 24 21 19 16 14 13 12 11 12 14 15 15 16 18 20 22 25 25 26 26 26 25 24 24 22 21 19 19 18 17 12 13 15 12 17 14 11 12 14 15
26 26 26 25 21 19 16 14 12 10 9 10 12 14 15 17 18 20 20 22 24 26 26 27 27 27 27 26 24 23 22 21 19 14 8 9 8 18 17 10 8 10 10
26 24 25 24 22 19 17 13 10 7 7 8 10 13 14 15 17 20 20 22 25 27 28 27 27 27 27 27 26 24 24 23 21 14 6 10 7 24 23 15 11 6 9
25 24 25 25 21 18 15 11 7 5 5 6 8 9 10 12 15 17 19 20 24 27 29 30 29 26 25 25 24 24 24 23 21 20 26 14 16 29 27 21 15 15 10
22 22 23 22 20 17 13 9 5 4 3 4 5 7 10 12 14 16 17 20 23 28 31 32 31 30 28 27 27 27 27 27 21 17 23 17 24 29 34 26 21 20 18
21 16 20 20 18 14 11 7 5 3 2 3 5 7 7 10 13 15 17 20 27 32 34 34 35 36 36 35 33 32 31 30 25 26 34 28 24 32 36 32 25 23 24
18 20 13 14 14 12 8 7 5 3 2 5 4 4 3 9 15 19 23 23 32 35 39 38 38 42 42 40 45 38 41 39 30 24 22 25 39 33 32 34 32 29 28
17 16 14 15 9 9 6 5 6 4 4 1 3 3 5 13 23 26 23 31 36 39 40 41 41 38 40 49 26 28 39 44 17 22 23 28 28 39 32 27 28 32 35
16 15 14 10 13 8 15 16 10 7 5 6 10 9 9 11 18 17 28 39 40 40 49 42 36 43 42 41 37 28 32 20 22 24 26 34 35 37 35 29 27 29 31
15 14 12 12 11 10 10 12 6 14 11 5 7 12 10 18 21 28 26 40 34 46 48 40 45 49 44 39 38 32 34 36 32 30 30 36 41 41 41 31 32 36 36
14 13 13 13 14 13 10 14 20 15 22 14 13 15 14 18 16 23 27 26 34 37 41 41 40 39 41 42 42 43 43 40 37 32 31 39 35 40 42 37 31 31 31
10 10 7 11 13 15 14 21 15 22 20 14 10 19 16 20 20 20 24 30 33 37 40 40 40 43 43 43 44 45 43 42 38 36 34 40 37 38 39 35 34 37 32
8 10 11 14 16 16 18 18 22 24 21 14 17 15 14 14 20 20 23 33 35 36 38 42 42 42 42 42 43 44 46 45 44 42 44 48 47 50 42 37 35 36 39
8 8 13 16 17 14 21 24 20 18 17 17 14 17 16 29 32 23 30 31 34 35 39 40 41 42 42 43 44 43 43 43 44 41 43 43 43 44 47 47 44 45 45
9 8 13 14 17 21 15 10 7 11 12 13 13 29 35 26 28 39 28 34 36 34 41 41 41 43 43 43 45 44 43 43 42 41 40 40 40 44 49 50 48 45 47
9 10 9 8 11 11 9 8 8 14 12 16 26 32 29 17 24 31 31 36 39 39 41 41 42 43 43 45 44 42 41 43 41 40 40 43 42 44 41 38 41 44 48
11 10 6 7 9 10 15 9 12 22 25 25 25 25 21 23 26 31 34 38 40 42 41 42 41 44 46 45 43 41 41 41 40 41 41 40 40 45 46 50 57 60 63
10 10 8 5 11 15 11 15 13 15 16 15 25 25 24 24 29 32 36 41 39 45 46 43 50 44 41 41 45 42 41 36 39 40 40 38 36 38 41 47 47 47 50
9 7 8 9 12 10 9 12 20 21 25 25 27 24 24 26 30 37 38 40 44 46 48 53 50 42 42 39 43 40 40 38 40 39 34 33 28 27 33 33 39 34 34
8 8 10 9 12 12 11 13 18 20 23 26 27 24 39 38 34 39 39 43 44 49 49 47 41 45 48 40 41 45 41 32 26 17 27 24 29 26 31 42 33 34 28
11 9 9 10 11 11 14 13 23 24 27 24 20 29 29 37 36 37 39 39 41 45 43 43 43 39 41 42 36 34 21 18 29 18 16 27 22 27 32 36 32 27 18
13 11 9 9 9 9 16 12 19 23 19 21 30 33 38 35 39 34 38 39 40 36 41 33 30 34 30 34 34 33 33 36 26 30 22 16 23 25 23 27 24 19 18
4 8 10 9 7 13 18 16 13 17 22 25 28 35 41 34 34 41 38 37 39 42 37 41 42 39 36 35 34 38 38 34 33 29 32 26 26 24 26 24 22 18 13
3 8 9 9 8 12 14 16 19 25 30 29 31 39 34 36 39 38 35 32 45 40 42 47 41 42 40 40 42 39 36 38 28 29 29 32 35 27 32 30 21 16 16
Wind_Direction_850mb
145 152 142 135 127 122 120 118 112 106 98 87 77 67 60 55 49 44 40 37 31 28 25 22 18 14 12 9 359 351 351 355 6 19 28 34 26 29 42 61 67 38 58
150 153 150 142 132 132 129 121 109 100 93 87 77 65 55 47 41 36 33 30 26 21 17 13 8 4 358 353 347 340 334 333 337 356 22 20 5 10 25 44 64 50 59
153 156 154 148 144 139 132 124 113 107 94 75 62 55 53 52 50 43 40 36 33 28 21 16 10 3 355 345 337 333 329 327 328 337 40 11 316 346 351 21 39 43 45
153 154 161 155 151 151 141 137 132 119 92 76 66 60 57 53 50 41 41 37 32 23 17 11 7 4 0 352 339 328 324 322 321 325 1 321 293 301 315 333 7 27 32
154 150 180 162 163 155 155 151 140 112 89 75 69 65 66 55 52 45 41 37 29 23 19 12 4 357 352 350 347 340 329 322 318 318 321 293 233 297 291 299 305 346 5
152 165 171 169 169 163 161 159 150 122 95 85 76 65 51 56 52 49 47 42 33 22 14 6 360 357 351 347 344 345 343 333 320 314 291 262 298 259 281 285 284 286 298
152 166 177 172 173 171 173 173 176 150 118 93 65 56 64 61 58 49 44 33 24 15 10 3 356 347 341 334 330 326 322 321 333 306 290 302 262 269 280 278 273 269 269
154 159 187 179 179 181 187 197 212 179 80 29 60 84 79 57 41 26 13 9 4 0 357 353 351 343 335 328 325 322 317 313 310 299 291 282 273 265 274 282 273 266 260
164 162 164 178 187 193 202 219 229 199 31 48 96 107 84 22 3 357 353 351 345 343 344 341 336 336 333 325 320 322 325 314 314 286 279 260 269 276 277 277 272 270 266
165 172 176 179 200 202 235 254 241 229 186 332 29 21 346 356 356 349 343 328 334 334 333 329 327 321 318 319 316 320 331 323 314 290 278 268 268 271 278 286 277 273 272
166 176 178 182 199 198 190 285 256 266 237 303 322 333 339 356 317 323 310 329 339 339 334 331 325 321 320 319 307 298 331 327 301 287 276 271 277 277 279 286 286 285 278
169 179 185 190 202 205 221 251 246 262 272 289 278 285 327 303 315 326 329 331 341 335 335 332 329 319 311 305 312 308 300 298 295 289 275 272 278 281 282 288 288 284 282
153 176 192 203 203 206 243 249 244 223 234 253 241 269 288 306 316 324 327 324 329 328 322 317 317 309 300 295 291 287 287 289 286 283 278 276 285 288 289 276 287 286 283
164 181 223 224 227 223 235 264 270 265 246 225 223 286 314 318 309 314 321 324 324 324 321 317 312 302 299 294 290 286 283 281 280 275 274 286 292 290 292 277 280 279 287
209 219 247 231 243 236 254 260 272 281 290 265 285 282 300 309 288 314 314 321 319 322 324 318 311 304 301 296 290 285 279 276 275 272 269 276 285 287 288 286 278 278 281
223 248 250 250 248 254 263 255 262 256 260 270 272 262 279 308 304 318 320 313 320 318 317 315 309 304 302 297 290 285 280 274 271 268 266 269 281 282 291 288 283 274 274
226 221 237 242 238 267 254 268 257 253 261 262 268 276 306 307 294 305 321 322 317 309 321 313 307 304 301 296 291 285 277 273 271 266 266 267 270 283 282 281 279 280 278
207 226 237 230 245 267 228 247 252 267 257 253 261 304 304 294 302 312 316 320 309 317 317 310 310 307 302 297 292 287 281 274 270 268 266 268 270 273 278 287 287 286 277
215 221 213 218 224 242 265 234 256 257 272 282 287 307 281 286 299 303 315 317 308 316 315 311 306 305 307 302 295 290 283 279 274 268 270 272 269 275 276 273 272 271 275
206 211 220 241 233 259 242 274 263 283 268 280 299 296 278 295 303 305 310 317 311 312 309 304 305 304 301 302 299 287 287 282 277 268 266 267 267 271 274 278 277 276 270
203 223 218 252 246 263 263 278 283 286 306 297 308 295 285 298 300 311 313 306 309 307 301 306 305 297 301 302 303 293 288 281 275 262 260 261 266 271 273 280 285 275 272
225 232 243 249 252 263 255 278 275 283 294 297 292 285 322 311 308 309 301 306 306 305 304 304 300 298 293 302 301 301 294 289 271 265 242 251 271 275 275 282 265 266 267
246 253 258 258 243 259 249 274 298 315 314 305 314 307 301 293 305 301 306 305 303 303 303 298 292 296 295 293 288 287 295 289 315 292 287 292 278 290 277 281 268 259 268
258 252 250 244 240 301 292 276 279 296 310 300 310 306 301 306 300 305 306 304 308 303 304 303 307 299 298 301 293 279 271 279 290 294 275 308 281 280 278 277 276 248 251
245 255 246 221 242 271 284 307 284 293 296 307 306 301 307 320 304 306 304 305 301 308 301 302 298 292 292 291 294 295 283 279 273 273 280 286 289 288 298 299 281 262 259
281 297 246 239 249 283 304 296 304 305 310 311 312 316 313 310 312 305 305 301 307 303 302 307 295 292 293 295 295 286 282 280 278 274 284 287 286 294 301 303 300 274 258